Vorticity
9 11 8 9 9 1 1 13 12 17 4 5 5 8 -9 12 5 5 6 15 11 9 6 8 8 12 9 9 8 6 5 5 5 6 6 8 6 3 6 7 6 4 6 6
3 8 13 8 6 4 5 8 4 -13 20 4 9 7 16 3 8 6 6 13 12 9 10 11 10 8 8 9 9 8 7 5 3 3 4 8 5 2 4 6 6 7 5 4
4 7 5 11 8 7 4 7 11 4 3 11 3 9 -4 -1 17 2 12 2 -2 2 9 12 7 9 9 7 8 9 8 5 5 3 4 6 5 3 4 6 7 2 5 6
5 5 5 3 8 6 8 8 9 8 -18 21 -1 6 11 12 15 10 14 -1 1 2 17 10 13 10 9 7 8 8 6 4 4 3 5 5 6 6 4 4 5 6 6 3
10 8 4 5 7 10 7 7 7 10 11 -15 11 13 3 11 15 14 13 -1 0 4 9 11 17 10 11 7 7 8 7 5 4 3 5 6 5 5 4 3 6 4 5 5
10 6 5 4 6 7 7 6 5 7 7 8 -8 4 28 8 10 24 5 5 -1 4 6 9 7 15 10 11 5 8 7 6 5 4 5 5 6 5 4 3 6 5 4 5
22 16 4 6 3 4 9 6 8 12 6 10 16 -5 -0 15 -8 16 12 5 1 6 10 10 12 6 18 11 12 8 9 7 4 5 5 3 5 9 5 3 4 6 6 6
-2 67 19 16 6 10 -1 10 1 11 26 4 -3 28 -6 -18 34 2 0 12 -1 5 8 2 -3 8 11 20 14 10 9 5 4 8 5 4 4 10 8 3 4 6 6 6
0 14 4 43 41 -7 41 17 6 1 5 12 16 27 0 22 -32 29 29 15 5 7 -0 1 -2 3 13 14 14 17 9 7 5 4 5 5 4 9 8 5 5 5 7 4
-2 20 -4 18 23 8 -21 28 26 -10 7 2 20 8 30 5 21 -2 -31 -12 5 34 3 5 -1 9 3 12 17 14 14 8 6 7 3 5 4 6 6 5 6 4 7 5
13 2 -2 32 13 9 38 -4 -2 18 1 0 3 14 -2 19 35 -1 23 2 15 -8 6 10 2 14 4 11 11 14 14 13 7 7 4 3 4 5 7 6 6 4 7 6
7 8 9 -35 44 37 33 31 -11 5 14 6 1 6 24 21 18 39 13 24 5 24 7 13 7 7 5 12 13 14 13 15 11 6 7 3 4 7 2 7 8 5 6 8
9 10 20 5 -11 -3 -1 6 -5 17 1 21 5 -4 38 -4 -6 -3 50 9 11 5 4 -6 9 7 7 -2 8 17 16 13 16 10 6 8 5 6 4 4 10 5 4 6
12 9 14 -11 25 11 7 50 7 -0 21 -6 22 8 -38 20 34 9 -7 8 -3 2 4 0 4 6 5 -2 8 12 16 15 16 14 9 9 6 3 10 4 7 4 3 6
26 15 11 10 -13 8 1 -12 9 22 -3 10 7 20 26 -6 12 6 6 17 20 8 9 4 5 5 -1 1 5 5 18 14 18 15 11 9 9 7 8 5 5 5 3 4
21 38 30 10 22 -6 -7 10 11 17 6 -23 4 -1 -14 5 13 13 15 7 22 6 10 12 5 -3 0 3 7 3 9 17 17 19 16 11 8 6 5 8 4 6 4 4
30 12 38 35 21 40 14 -2 8 12 16 20 -11 -1 27 -18 22 8 12 5 22 8 11 8 11 5 -9 10 3 4 7 13 15 17 16 14 11 6 6 8 8 5 5 5
16 19 15 19 25 9 26 32 3 14 23 19 23 -16 14 -10 -12 -18 9 3 17 9 9 7 2 13 4 2 3 3 4 4 11 19 14 16 11 11 8 9 9 8 7 5
33 9 19 8 18 25 26 32 21 7 -5 16 8 37 2 0 3 5 -23 14 10 17 11 8 9 3 13 -1 6 3 -0 5 5 15 17 17 14 10 10 10 10 10 9 7
10 26 12 1 -1 28 10 -6 39 21 16 -4 9 15 10 3 -5 -10 6 -2 10 9 13 11 10 6 5 5 -6 -3 -1 5 3 13 21 17 16 10 8 8 9 9 11 10
18 14 16 34 5 2 17 24 4 19 17 17 10 12 16 20 20 14 4 8 4 8 11 7 9 15 4 7 3 6 1 1 -3 7 12 18 19 12 7 7 8 11 12 13
8 19 20 20 14 20 -3 37 15 11 19 14 15 15 16 12 20 15 5 13 8 11 8 14 3 7 3 9 -0 11 -1 3 -0 6 6 13 18 18 8 6 6 13 14 16
14 9 5 14 19 19 24 10 9 15 25 23 7 10 14 17 17 22 3 10 10 6 9 11 15 6 5 1 9 13 -21 13 0 4 4 3 14 16 13 7 1 6 16 17
13 4 14 0 32 23 33 33 18 17 17 19 15 13 8 18 18 18 9 12 9 9 6 11 7 19 6 4 3 2 4 3 2 5 4 1 5 14 19 12 5 2 5 16
13 12 20 16 12 9 19 29 28 21 22 18 13 15 20 20 21 15 15 16 11 10 10 7 9 14 18 7 2 5 13 6 5 13 -2 -0 -1 -1 11 18 13 7 4 5
15 15 20 27 12 12 16 25 43 26 16 11 30 18 -2 25 24 15 18 13 14 16 6 15 4 9 14 15 20 15 13 7 10 -0 5 4 -3 5 2 13 14 14 10 8
Height
5838 5841 5848 5853 5854 5857 5860 5866 5872 5876 5879 5878 5880 5884 5874 5869 5887 5890 5889 5891 5895 5898 5900 5902 5905 5908 5912 5915 5918 5921 5924 5927 5929 5931 5932 5935 5937 5939 5940 5942 5942 5942 5943 5943
5830 5836 5842 5843 5846 5849 5852 5858 5864 5870 5872 5874 5876 5877 5876 5880 5885 5888 5888 5890 5893 5895 5898 5901 5904 5907 5910 5914 5917 5921 5924 5927 5929 5930 5933 5935 5938 5940 5942 5944 5945 5945 5945 5945
5822 5830 5831 5834 5839 5843 5846 5853 5858 5863 5866 5869 5873 5874 5874 5873 5876 5881 5886 5888 5891 5894 5896 5899 5902 5905 5908 5913 5916 5920 5923 5926 5928 5930 5933 5936 5939 5941 5942 5944 5946 5946 5947 5947
5812 5818 5822 5826 5831 5836 5840 5846 5850 5854 5859 5863 5865 5871 5874 5865 5861 5876 5882 5885 5889 5893 5895 5897 5899 5903 5907 5910 5913 5918 5921 5925 5928 5930 5933 5936 5938 5941 5943 5945 5947 5948 5949 5950
5803 5807 5811 5818 5825 5828 5834 5838 5842 5847 5850 5856 5861 5862 5872 5871 5867 5873 5878 5882 5886 5890 5893 5895 5898 5901 5903 5906 5910 5914 5919 5923 5926 5930 5932 5935 5938 5941 5944 5946 5947 5949 5950 5951
5789 5794 5799 5809 5813 5818 5826 5828 5832 5839 5843 5842 5852 5859 5865 5866 5867 5870 5874 5879 5883 5887 5890 5892 5894 5896 5900 5903 5907 5912 5917 5921 5925 5928 5932 5934 5937 5940 5943 5946 5948 5950 5951 5952
5777 5784 5788 5793 5801 5808 5816 5819 5825 5829 5831 5837 5848 5850 5863 5869 5865 5869 5872 5875 5879 5883 5886 5888 5890 5894 5896 5901 5906 5910 5915 5919 5923 5927 5930 5933 5936 5939 5941 5944 5948 5950 5951 5952
5769 5775 5778 5784 5788 5799 5805 5811 5817 5822 5830 5837 5841 5839 5848 5860 5859 5857 5869 5871 5875 5877 5881 5885 5888 5891 5893 5896 5901 5907 5913 5916 5920 5925 5928 5931 5934 5937 5940 5943 5946 5949 5951 5952
5761 5766 5769 5772 5780 5788 5796 5796 5813 5821 5829 5833 5838 5839 5844 5851 5852 5857 5861 5866 5869 5872 5877 5881 5884 5887 5890 5892 5896 5903 5908 5913 5917 5921 5925 5929 5932 5936 5939 5942 5944 5947 5949 5951
5751 5756 5760 5765 5765 5770 5781 5797 5800 5803 5814 5822 5832 5837 5835 5840 5844 5849 5856 5859 5865 5869 5873 5876 5880 5883 5887 5888 5891 5896 5902 5907 5912 5917 5921 5926 5930 5933 5936 5939 5943 5946 5948 5950
5740 5745 5751 5751 5753 5762 5772 5778 5783 5798 5804 5814 5824 5832 5836 5834 5836 5842 5848 5855 5861 5866 5869 5871 5875 5879 5882 5884 5886 5891 5896 5902 5908 5913 5918 5922 5927 5931 5933 5937 5941 5943 5946 5948
5725 5731 5738 5742 5750 5754 5759 5770 5776 5784 5795 5804 5818 5828 5829 5832 5832 5833 5840 5848 5854 5859 5865 5867 5870 5874 5878 5881 5883 5887 5891 5896 5903 5909 5913 5918 5922 5927 5930 5935 5939 5942 5944 5946
5712 5719 5726 5733 5737 5739 5742 5754 5761 5775 5789 5798 5808 5818 5813 5822 5824 5831 5832 5841 5846 5849 5854 5859 5864 5869 5874 5879 5881 5884 5887 5891 5896 5902 5908 5912 5917 5923 5928 5932 5935 5938 5941 5943
5697 5702 5708 5719 5732 5723 5732 5739 5752 5761 5771 5785 5795 5811 5812 5814 5819 5819 5818 5820 5824 5832 5841 5852 5859 5864 5870 5874 5877 5880 5883 5886 5890 5896 5903 5908 5913 5919 5924 5928 5931 5935 5938 5940
5679 5684 5693 5699 5705 5710 5717 5722 5730 5741 5753 5766 5785 5797 5802 5808 5809 5805 5811 5818 5823 5833 5839 5847 5855 5859 5863 5868 5873 5876 5878 5882 5885 5891 5897 5905 5909 5913 5918 5922 5927 5930 5934 5937
5663 5669 5674 5681 5689 5698 5706 5714 5721 5727 5740 5747 5759 5766 5782 5781 5779 5789 5799 5805 5814 5821 5827 5838 5846 5851 5858 5863 5868 5872 5874 5878 5881 5885 5891 5897 5902 5908 5913 5917 5922 5926 5930 5933
5655 5660 5663 5668 5676 5688 5689 5700 5709 5718 5728 5739 5751 5760 5766 5772 5775 5777 5781 5799 5805 5813 5819 5829 5838 5844 5851 5857 5862 5868 5870 5872 5876 5881 5885 5889 5895 5901 5906 5911 5916 5921 5925 5928
5649 5652 5655 5661 5667 5669 5686 5693 5695 5700 5710 5721 5733 5744 5753 5755 5757 5762 5779 5789 5795 5804 5812 5821 5828 5836 5844 5850 5856 5860 5864 5868 5872 5876 5881 5885 5889 5895 5899 5904 5911 5916 5919 5924
5644 5647 5649 5653 5658 5666 5676 5671 5678 5687 5705 5704 5714 5724 5736 5727 5747 5762 5767 5778 5786 5795 5803 5811 5818 5825 5834 5842 5848 5853 5858 5863 5867 5871 5876 5880 5884 5889 5894 5900 5905 5909 5913 5917
5642 5643 5645 5647 5650 5654 5657 5661 5665 5674 5686 5689 5693 5701 5709 5724 5741 5739 5753 5768 5777 5786 5794 5801 5808 5815 5821 5831 5838 5846 5853 5857 5863 5867 5869 5872 5877 5882 5889 5894 5898 5902 5905 5910
5638 5637 5637 5640 5642 5646 5643 5647 5656 5662 5670 5675 5684 5694 5704 5715 5727 5741 5748 5761 5769 5776 5785 5792 5800 5807 5814 5820 5830 5839 5845 5852 5857 5858 5862 5866 5871 5876 5882 5886 5890 5894 5899 5903
5633 5631 5631 5633 5632 5633 5632 5642 5644 5646 5655 5663 5674 5684 5691 5701 5711 5724 5732 5749 5760 5767 5775 5783 5790 5798 5808 5815 5820 5831 5838 5844 5847 5852 5856 5860 5865 5870 5875 5880 5884 5889 5893 5897
5630 5627 5626 5625 5625 5624 5625 5626 5631 5633 5642 5651 5662 5671 5679 5690 5700 5712 5719 5734 5747 5756 5765 5772 5780 5789 5799 5807 5814 5824 5828 5834 5839 5845 5850 5854 5858 5863 5869 5874 5878 5882 5886 5890
5622 5620 5617 5614 5616 5612 5611 5615 5617 5622 5631 5641 5651 5661 5671 5682 5691 5700 5709 5721 5735 5745 5755 5763 5771 5780 5789 5796 5805 5812 5820 5827 5832 5837 5843 5848 5852 5856 5862 5867 5871 5876 5880 5883
5620 5616 5611 5609 5606 5605 5605 5607 5608 5614 5623 5633 5642 5653 5663 5673 5681 5689 5698 5709 5723 5735 5744 5753 5761 5770 5779 5788 5795 5803 5812 5819 5825 5830 5835 5840 5845 5849 5854 5858 5863 5868 5872 5876
5615 5611 5607 5603 5601 5599 5599 5600 5602 5607 5616 5625 5634 5645 5655 5664 5671 5679 5688 5698 5712 5724 5734 5743 5752 5760 5768 5776 5784 5792 5801 5808 5815 5822 5827 5832 5837 5842 5847 5850 5854 5858 5863 5869